Regional Weather Roundup
Issued by NWS

Home | Current Version | Previous Version | Graphics & Text | Print | Product List | Glossary On
Versions: 1 2 3 4 5 6 7 8 9 10 11 12 13 14 15 16 17 18 19 20 21 22 23 24 25 26 27 28 29 30 31 32 33 34 35 36 37 38 39 40 41 42 43 44 45 46 47 48 49 50
000
ASUS43 KIND 221559
RWRIN

WEATHER ROUNDUP FOR INDIANA
NATIONAL WEATHER SERVICE INDIANAPOLIS IN
1200 PM EDT FRI MAY 22 2015

NOTE: "FAIR" INDICATES FEW OR NO CLOUDS BELOW 12,000 FEET WITH NO
SIGNIFICANT WEATHER AND/OR OBSTRUCTIONS TO VISIBILITY.

* - STATION DOES NOT REPORT WEATHER SUCH AS PRECIPITATION OR FOG.

+ - STATION NOT QUALITY CONTROLLED BY THE NATIONAL WEATHER SERVICE.
    USE DATA WITH CAUTION...ESPECIALLY DEWPOINT AND RELATIVE
    HUMIDITY OBSERVATIONS.

INZ001>003-010>013-019-020-221700-
NORTHWEST INDIANA

CITY           SKY/WX    TMP DP  RH WIND       PRES   REMARKS
GARY /AIRPORT/ SUNNY     57  46  67 N7        30.23R

$$

LMZ046-743>745-221700-
SOUTHERN LAKE MICHIGAN

STATION/POSITION TIME  TEMP    WIND        PRES    WAVE
                       AIR SEA DIR/SP/G            HT
                 (UTC) (F)     (DEG/KT/KT) (MB)    (FT)
BURNS HARBOR     1500   51      30/  5/  6 1023.7R
MICHIGAN CITY    1500   52     360/ 14/ 16   N/A
5NW MICH CITY    1500   49 51   20/ 12/ 14   N/A     1

$$

INZ004-005-014>016-021>024-221700-
NORTH CENTRAL INDIANA

CITY           SKY/WX    TMP DP  RH WIND       PRES   REMARKS
ELKHART        SUNNY     64  34  32 E6        30.21R
GOSHEN         SUNNY     64  38  38 E8        30.20R
SOUTH BEND     SUNNY     66  32  28 MISG      30.21R

$$

INZ006>009-017-018-025>027-221700-
NORTHEAST INDIANA

CITY           SKY/WX    TMP DP  RH WIND       PRES   REMARKS
ANGOLA *+      SUNNY     61  50  67 E7        30.19S
FORT WAYNE     SUNNY     65  43  44 E6        30.20R

$$

INZ028-029-035-036-043>045-051>053-221700-
WEST CENTRAL INDIANA

CITY           SKY/WX    TMP DP  RH WIND       PRES   REMARKS
GREENCASTLE +  SUNNY     64  45  48 CALM      30.22R
LAFAYETTE      SUNNY     65  49  56 VRB3      30.20R
TERRE HAUTE    SUNNY     66  49  54 VRB3      30.22S

$$

INZ030>032-037>040-046>048-054>057-064-065-221700-
CENTRAL INDIANA

CITY           SKY/WX    TMP DP  RH WIND       PRES   REMARKS
ANDERSON       SUNNY     64  45  48 NW6       30.21R
GREENWOOD *+   SUNNY     66  45  45 SW8       30.21S
INDIANAPOLIS   MOSUNNY   66  48  52 W9        30.19S
-EAGLE CREEK   SUNNY     65  48  54 W7        30.20R
KOKOMO *+      SUNNY     66  46  48 CALM      30.20R
MT COMFORT *+  SUNNY     68  36  30 SW7       30.20S
SHELBYVILLE    SUNNY     69  47  45 W13       30.19S

$$

INZ033-034-041-042-049-050-058-059-221700-
EAST CENTRAL INDIANA

CITY           SKY/WX    TMP DP  RH WIND       PRES   REMARKS
MUNCIE         SUNNY     65  49  56 NW7       30.20R

$$

INZ060-061-067>069-081>083-085>088-221700-
SOUTHWEST INDIANA

CITY           SKY/WX    TMP DP  RH WIND       PRES   REMARKS
EVANSVILLE     SUNNY     67  47  48 SW14      30.28S
HUNTINGBURG *+ SUNNY     66  50  55 SW12      30.27S

$$

INZ062-063-066-070>080-084-089>092-221700-
SOUTH CENTRAL AND SOUTHEAST INDIANA

CITY           SKY/WX    TMP DP  RH WIND       PRES   REMARKS
BLOOMINGTON    SUNNY     66  48  52 SW13      30.23R
MADISON *+     SUNNY     68  43  40 S9        30.26F
SEYMOUR +      SUNNY     72  48  43 W17       30.23S

$$



USA.gov is the U.S. government's official web portal to all federal, state and local government web resources and services.